Location: Makanda
(37.6176°N, 89.2090°W)
Time: 19:48:50
(UTC+00:00)

Okean 1 - Pass Details

Date: 23 September 2019
Orbit: 540 x 554 km, 82.5° (Epoch: 20 October)

Event Time Altitude Azimuth Distance (km) Brightness Sun altitude
Rises 11:00:30 0° 207° (SSW) 2,683 6.5 -9.7°
Reaches altitude 10° 11:02:48 10° 217° (SW) 1,797 5.5 -9.2°
Maximum altitude 11:06:23 33° 282° (WNW) 928 4.0 -8.5°
Drops below altitude 10° 11:10:00 10° 347° (NNW) 1,813 5.9 -7.8°
Sets 11:12:20 0° 357° (N) 2,712 6.9 -7.4°
